{"data":{"norad_id":55789,"epoch":"2026-09-20T22:00:03.000096Z","epoch_age_seconds":67134,"freshness":"FRESH","line1":"1 55789U 23028BA  26263.91670139  .00073031  00000+0  50089-2 0  9991","line2":"2 55789  70.0030  72.1090 0004685 301.8918   7.7516 15.05597027  5718","mean_motion":15.05597027,"eccentricity":0.0004685,"inclination_deg":70.003,"raan_deg":72.109,"arg_perigee_deg":301.8918,"mean_anomaly_deg":7.7516,"bstar":0.0050089,"rev_number":571,"period_min":95.643121909539,"perigee_km":546.42796894027,"apogee_km":552.91932751766,"semimajor_km":6927.810648229,"source":"CELESTRAK","updated_at":"2026-09-21T09:00:33.321209Z"}}